Other Surface Observations
Issued by NWS

Home | Current Version | Previous Version | Text Only | Print | Product List | Glossary On
Versions: 1 2 3 4 5 6 7 8 9 10 11 12 13 14 15 16 17 18 19 20 21 22 23 24 25 26 27 28 29 30 31 32 33 34 35 36 37 38 39 40 41 42 43 44 45 46 47 48 49 50
000
SXUS52 KTAE 260810
OSOTAE
OSOTAE
North Florida/South Alabama/Southwest Georgia Weather Roundup
National Weather Service Tallahassee Florida
400 AM EDT SAT MAY 26 2018

Note: "fair" indicates few or no clouds below 12,000 feet with no
significant weather and/or obstructions to visibility.

!FLZ017-115-028-034-025-260900
...North Florida...

CITY           SKY/WX    TMP DP  RH WIND       PRES   REMARKS
TALLAHASSEE    FAIR      72  68  87 E5        29.92F
APALACHICOLA   CLOUDY    76  75  97 MISG      29.90F
PERRY          CLOUDY    72  71  96 SE5       29.95S FOG
CROSS CITY     FAIR      72 N/A N/A SE5       29.94S
JACKSONVILLE   MOCLDY    71  70  96 CALM      29.95S
$$

!FLZ112-006-005-002-011-260900
...Florida Panhandle...

CITY           SKY/WX    TMP DP  RH WIND       PRES   REMARKS
MARIANNA       FAIR      72  68  87 CALM      29.91F
BONIFAY        FAIR      69  68  96 CALM      29.92S
PANAMA CITY NW FAIR      71  69  93 E3        29.90S
TYNDALL AFB    FAIR      74  71  92 E3        29.90F
TYND DRONE APT NOT AVBL
DE FUNIAK SPR  FAIR      70  68  95 CALM      29.92S
EGLIN AFB      PTCLDY    72  69  89 CALM      29.89F
DESTIN         FAIR      77  71  82 VRB3      29.90F
HURLBURT       FAIR      71  68  88 CALM      29.89F
CRESTVIEW      FAIR      67  65  93 CALM      29.91F FOG
PENSACOLA      FAIR      74  69  85 CALM      29.89F
$$

!ALZ063-066-260900
...South Alabama...

CITY           SKY/WX    TMP DP  RH WIND       PRES   REMARKS
DOTHAN         FAIR      72  69  90 CALM      29.95F
OZARK CAIRNS   FOG       70  70 100 CALM      29.91F VSB 1/2
FT RUCKER HELI FAIR      68  67  99 CALM      29.91S
RUCKER HELI 3  FAIR      69  68  98 CALM      29.91F
RUCKER HELI 2  FAIR      68  67  99 CALM      29.90F
FLORALA APT    FAIR      69  66  90 CALM      29.93S
ANDALUSIA      MOCLDY    71  68  90 CALM      29.90F FOG
TROY           FAIR      68  67  96 CALM      29.92F
EUFALA         FAIR      69  68  96 CALM      29.91S
MOBILE         FAIR      72  70  93 CALM      29.91F
$$

!GAZ120>161-260900
...Southwest and South Central Georgia...

CITY           SKY/WX    TMP DP  RH WIND       PRES   REMARKS
THOMASVILLE    FAIR     N/A N/A N/A CALM      29.95S
BAINBRIDGE     FAIR      73  73 100 CALM      29.92F
MOODY AFB      MOCLDY    70  70 100 CALM      29.93F
VALDOSTA       FAIR      69  68  96 S3        29.94S
MOULTRIE       FAIR      70  68  94 SE3       29.95S
BLAKELY        FAIR      70  68  94 CALM      29.93S
ALBANY         FAIR      72  71  97 CALM      29.95F
TIFTON         FAIR     N/A N/A N/A S3        29.95
FITZGERALD     FAIR      72  72 100 CALM      29.97S
CORDELE        FAIR      71  70  98 CALM      29.95F FOG
AMERICUS       FAIR      70  64  83 CALM      29.96R
HOMERVILLE     FAIR      70  70 100 CALM      29.95S
$$

!GMZ750-755-770-775-260900
...Coastal and Buoy Obs...

STATION/POSITION TIME  TEMP    WIND        PRES    VSBY  WAVE
                       AIR SEA DIR/SP/G                  HT/PER
                 (UTC) (F)     (DEG/KT/KT) (MB)    (MI)  (FT/S)
KEATON BEACH     0800   72      90/  7/  9 1013.9S
CEDAR KEY        0700   76     160/ 10/ 12 1014.1F
C TOWER          0800   77     140/ 13/ 14 1012.7F
APALACHICOLA BUO NOT AVBL
PANAMA CITY BUOY 0750   79 81   80/  6/  8 1011.8F         2/ 8
MOBILE BUOY      0750      86  200/  2/  4 1011.9F         2/ 6
ORANGE BCH AL BU 0800   80      80/  4/  6 1011.9
$$




USA.gov is the U.S. government's official web portal to all federal, state and local government web resources and services.